C/2016 X1 ( Lemmon )

Japanese version
Home page
Updated on January 6, 2021

---------------------------------------------------------------------

* Profile

Discovery Date December 8, 2016
Magnitude 20.1 mag
Discoverer G. J. Leonard (Mount Lemmon)

* Pictures

* Orbital Elements

Epoch 2019 Apr. 27.0 TT = JDT 2458600.5
T 2019 Apr. 29.73961 TT                                 Rudenko
q   7.5642623            (2000.0)            P               Q
z  +0.0005823      Peri.  224.55749     -0.44337764     -0.78477394
 +/-0.0000016      Node   256.42669     +0.89508219     -0.36211561
e   0.9955957      Incl.   26.45590     +0.04737238     -0.50299319
From 257 observations 2016 Nov. 26-2020 Feb. 24, mean residual 0".6.

* Magnitudes Graph

        m1 = -3.5 + 5 log d + 20.0 log r(t + 150)

---------------------------------------------------------------------

The orbital elements are published on M.P.E.C. 2020-G65.
The magnitudes graphs are made with Comet for Windows.

---------------------------------------------------------------------

Copyright(C) Seiichi Yoshida (comet@aerith.net). All rights reserved.